BEIDOU-2 IGSO-2

Last updated on Sun Apr 12 2026 00:02:52 GMT+0000 (Coordinated Universal Time)

1 37256U 10068A 26100.75400057 -.00000168 00000+0 00000+0 0 9999 2 37256 47.6667 272.6622 0051138 214.8589 87.0465 1.00247085 56113
UTC large
Height (km)
Speed (km/s)
/
Latitude / Longitude
Inclination (degrees)
Orbital Period (minutes)
Azimuth
Elevation
Range (km)
Doppler Factor

Next 0 passes for location: London (51.5072 / 0.1276)

Sorry there are no passes over London.